| time (UTC) | temp F | wind direction | speed MPH | gust MPH | rain 1hr in | rain 24hr in | rain mn in | humidity % | barometer mb |
| 20260505065704 | 51 | 189 | 0.0 | 0.0 | 0.00 | 0.00 | 0.00 | 80 | 1009.1 |
| 20260505064703 | 51 | 189 | 0.0 | 0.0 | 0.00 | 0.00 | 0.00 | 80 | 1009.1 |
| 20260505063704 | 51 | 189 | 0.0 | 0.0 | 0.00 | 0.00 | 0.00 | 79 | 1009.2 |
| 20260505063204 | 51 | 189 | 0.0 | 0.0 | 0.00 | 0.00 | 0.00 | 79 | 1009.2 |
| 20260505062704 | 52 | 189 | 0.0 | 0.0 | 0.00 | 0.00 | 0.00 | 78 | 1009.3 |
| 20260505061704 | 52 | 189 | 0.0 | 0.0 | 0.00 | 0.00 | 0.00 | 77 | 1009.3 |
| 20260505060704 | 52 | 189 | 0.0 | 0.0 | 0.00 | 0.00 | 0.00 | 77 | 1009.3 |
| 20260505055703 | 52 | 189 | 0.0 | 0.0 | 0.00 | 0.00 | 0.00 | 77 | 1009.3 |
| 20260505055204 | 53 | 189 | 0.0 | 0.0 | 0.00 | 0.00 | 0.00 | 76 | 1009.4 |
| 20260505054203 | 53 | 189 | 0.0 | 0.0 | 0.00 | 0.00 | 0.00 | 75 | 1009.6 |
| 20260505053703 | 53 | 189 | 0.0 | 0.0 | 0.00 | 0.00 | 0.00 | 74 | 1009.5 |
| 20260505053204 | 53 | 189 | 0.0 | 0.0 | 0.00 | 0.00 | 0.00 | 74 | 1009.5 |
| 20260505051204 | 54 | 189 | 0.0 | 0.0 | 0.00 | 0.00 | 0.00 | 72 | 1009.5 |
| 20260505050704 | 54 | 189 | 0.0 | 0.0 | 0.00 | 0.00 | 0.00 | 72 | 1009.5 |
| 20260505050205 | 54 | 189 | 0.0 | 2.0 | 0.00 | 0.00 | 0.00 | 71 | 1009.6 |
| 20260505041704 | 56 | 191 | 0.0 | 0.0 | 0.00 | 0.00 | 0.00 | 66 | 1009.4 |
| 20260505041204 | 57 | 191 | 0.0 | 0.0 | 0.00 | 0.00 | 0.00 | 65 | 1009.3 |
| 20260505040704 | 57 | 191 | 0.0 | 1.0 | 0.00 | 0.00 | 0.00 | 64 | 1009.4 |
| 20260505035203 | 58 | 192 | 0.0 | 1.0 | 0.00 | 0.00 | 0.00 | 63 | 1009.3 |
| 20260505032705 | 59 | 183 | 0.0 | 2.0 | 0.00 | 0.00 | 0.00 | 61 | 1009.2 |
| 20260505030203 | 60 | 199 | 1.0 | 2.0 | 0.00 | 0.00 | 0.00 | 59 | 1009.1 |
| 20260505025704 | 60 | 199 | 1.0 | 2.0 | 0.00 | 0.00 | 0.00 | 58 | 1009.1 |
| 20260505024703 | 60 | 200 | 1.0 | 2.0 | 0.00 | 0.00 | 0.00 | 57 | 1009.0 |
| 20260505023204 | 61 | 198 | 1.0 | 3.0 | 0.00 | 0.00 | 0.00 | 56 | 1009.0 |
| 20260505022704 | 61 | 175 | 2.0 | 6.0 | 0.00 | 0.00 | 0.00 | 56 | 1009.1 |
| 20260505021704 | 61 | 194 | 1.0 | 3.0 | 0.00 | 0.00 | 0.00 | 56 | 1009.1 |
| 20260505021204 | 61 | 194 | 1.0 | 3.0 | 0.00 | 0.00 | 0.00 | 55 | 1009.1 |
| 20260505020704 | 62 | 194 | 1.0 | 3.0 | 0.00 | 0.00 | 0.00 | 55 | 1009.0 |
| 20260505020203 | 62 | 187 | 1.0 | 3.0 | 0.00 | 0.00 | 0.00 | 55 | 1009.0 |
| 20260505015705 | 62 | 244 | 1.0 | 2.0 | 0.00 | 0.00 | 0.00 | 53 | 1008.9 |
| 20260505014703 | 62 | 243 | 2.0 | 6.0 | 0.00 | 0.00 | 0.00 | 54 | 1008.9 |
| 20260505014204 | 62 | 194 | 1.0 | 3.0 | 0.00 | 0.00 | 0.00 | 53 | 1008.8 |
| 20260505011704 | 64 | 140 | 2.0 | 5.0 | 0.00 | 0.00 | 0.00 | 52 | 1008.4 |
| 20260505011203 | 64 | 182 | 1.0 | 5.0 | 0.00 | 0.00 | 0.00 | 51 | 1008.3 |
| 20260505010703 | 64 | 174 | 1.0 | 3.0 | 0.00 | 0.00 | 0.00 | 50 | 1008.2 |
| 20260505010204 | 64 | 171 | 1.0 | 3.0 | 0.00 | 0.00 | 0.00 | 49 | 1008.1 |
| 20260505005203 | 65 | 222 | 2.0 | 7.0 | 0.00 | 0.00 | 0.00 | 48 | 1007.8 |
| 20260505003706 | 65 | 178 | 2.0 | 9.0 | 0.00 | 0.00 | 0.00 | 48 | 1007.5 |
| 20260505003206 | 64 | 183 | 3.0 | 9.0 | 0.00 | 0.00 | 0.00 | 48 | 1007.4 |
| 20260505002205 | 65 | 194 | 0.0 | 2.0 | 0.00 | 0.00 | 0.00 | 48 | 1006.9 |
| 20260505001706 | 65 | 194 | 0.0 | 0.0 | 0.00 | 0.00 | 0.00 | 46 | 1006.7 |
| 20260505001206 | 65 | 194 | 0.0 | 0.0 | 0.00 | 0.00 | 0.00 | 46 | 1006.7 |
| 20260505000706 | 66 | 194 | 0.0 | 0.0 | 0.00 | 0.00 | 0.00 | 45 | 1006.6 |
| 20260504233206 | 68 | 169 | 0.0 | 2.0 | 0.00 | 0.00 | 0.00 | 42 | 1006.1 |
| 20260504232705 | 68 | 207 | 0.0 | 2.0 | 0.00 | 0.00 | 0.00 | 40 | 1006.1 |
| 20260504232205 | 69 | 207 | 0.0 | 1.0 | 0.00 | 0.00 | 0.00 | 40 | 1006.0 |
| 20260504230706 | 70 | 187 | 0.0 | 2.0 | 0.00 | 0.00 | 0.00 | 38 | 1005.8 |
| 20260504225705 | 70 | 228 | 0.0 | 2.0 | 0.00 | 0.00 | 0.00 | 37 | 1005.7 |
| 20260504225206 | 71 | 250 | 2.0 | 3.0 | 0.00 | 0.00 | 0.00 | 37 | 1005.7 |
| 20260504224205 | 71 | 185 | 0.0 | 3.0 | 0.00 | 0.00 | 0.00 | 37 | 1005.5 |
| 20260504223706 | 71 | 241 | 1.0 | 3.0 | 0.00 | 0.00 | 0.00 | 36 | 1005.5 |
| 20260504222205 | 72 | 239 | 2.0 | 3.0 | 0.00 | 0.00 | 0.00 | 36 | 1005.4 |
| 20260504221706 | 72 | 229 | 0.0 | 2.0 | 0.00 | 0.00 | 0.00 | 36 | 1005.4 |
| 20260504221205 | 72 | 229 | 0.0 | 3.0 | 0.00 | 0.00 | 0.00 | 35 | 1005.4 |
| 20260504215206 | 72 | 225 | 3.0 | 5.0 | 0.00 | 0.00 | 0.00 | 35 | 1005.5 |
| 20260504214206 | 73 | 187 | 2.0 | 7.0 | 0.00 | 0.00 | 0.00 | 35 | 1005.5 |
| 20260504213705 | 73 | 269 | 2.0 | 3.0 | 0.00 | 0.00 | 0.00 | 34 | 1005.5 |
| 20260504213205 | 73 | 281 | 2.0 | 6.0 | 0.00 | 0.00 | 0.00 | 35 | 1005.5 |
| 20260504212205 | 73 | 181 | 2.0 | 8.0 | 0.00 | 0.00 | 0.00 | 35 | 1005.5 |
| 20260504210707 | 73 | 232 | 3.0 | 7.0 | 0.00 | 0.00 | 0.00 | 32 | 1005.5 |
| 20260504205206 | 73 | 335 | 3.0 | 9.0 | 0.00 | 0.00 | 0.00 | 33 | 1005.5 |
| 20260504204205 | 73 | 211 | 5.0 | 9.0 | 0.00 | 0.00 | 0.00 | 33 | 1005.7 |
| 20260504203206 | 73 | 192 | 1.0 | 3.0 | 0.00 | 0.00 | 0.00 | 33 | 1005.5 |
| 20260504202706 | 74 | 226 | 3.0 | 7.0 | 0.00 | 0.00 | 0.00 | 31 | 1005.5 |
| 20260504202205 | 74 | 207 | 2.0 | 5.0 | 0.00 | 0.00 | 0.00 | 33 | 1005.6 |
| 20260504201706 | 74 | 210 | 1.0 | 3.0 | 0.00 | 0.00 | 0.00 | 32 | 1005.6 |
| 20260504201205 | 74 | 265 | 3.0 | 6.0 | 0.00 | 0.00 | 0.00 | 32 | 1005.6 |
| 20260504200706 | 74 | 198 | 2.0 | 3.0 | 0.00 | 0.00 | 0.00 | 33 | 1005.5 |
| 20260504200205 | 74 | 198 | 1.0 | 6.0 | 0.00 | 0.00 | 0.00 | 32 | 1005.7 |
| 20260504195206 | 73 | 219 | 3.0 | 6.0 | 0.00 | 0.00 | 0.00 | 32 | 1005.6 |
| 20260504194206 | 73 | 219 | 3.0 | 9.0 | 0.00 | 0.00 | 0.00 | 31 | 1005.7 |
| 20260504193705 | 73 | 284 | 3.0 | 8.0 | 0.00 | 0.00 | 0.00 | 31 | 1005.6 |
| 20260504192205 | 73 | 176 | 2.0 | 5.0 | 0.00 | 0.00 | 0.00 | 33 | 1005.7 |
| 20260504185205 | 73 | 194 | 4.0 | 12.0 | 0.00 | 0.00 | 0.00 | 31 | 1006.0 |
| 20260504184705 | 73 | 167 | 3.0 | 7.0 | 0.00 | 0.00 | 0.00 | 31 | 1006.0 |
| 20260504183706 | 73 | 181 | 3.0 | 10.0 | 0.00 | 0.00 | 0.00 | 31 | 1006.0 |
| 20260504183205 | 73 | 216 | 2.0 | 6.0 | 0.00 | 0.00 | 0.00 | 31 | 1006.1 |
| 20260504182205 | 72 | 243 | 4.0 | 7.0 | 0.00 | 0.00 | 0.00 | 33 | 1006.1 |
| 20260504180205 | 71 | 230 | 5.0 | 9.0 | 0.00 | 0.00 | 0.00 | 32 | 1006.3 |
| 20260504175706 | 71 | 242 | 5.0 | 9.0 | 0.00 | 0.00 | 0.00 | 32 | 1006.4 |
| 20260504175205 | 72 | 229 | 5.0 | 12.0 | 0.00 | 0.00 | 0.00 | 33 | 1006.4 |
| 20260504174707 | 71 | 182 | 4.0 | 7.0 | 0.00 | 0.00 | 0.00 | 33 | 1006.3 |
| 20260504173706 | 71 | 231 | 3.0 | 8.0 | 0.00 | 0.00 | 0.00 | 33 | 1006.4 |
| 20260504173205 | 71 | 248 | 3.0 | 7.0 | 0.00 | 0.00 | 0.00 | 34 | 1006.5 |
| 20260504172205 | 70 | 235 | 2.0 | 8.0 | 0.00 | 0.00 | 0.00 | 35 | 1006.8 |
| 20260504171706 | 70 | 245 | 6.0 | 12.0 | 0.00 | 0.00 | 0.00 | 35 | 1006.8 |
| 20260504171205 | 70 | 274 | 3.0 | 7.0 | 0.00 | 0.00 | 0.00 | 35 | 1006.6 |
| 20260504160206 | 67 | 254 | 5.0 | 17.0 | 0.00 | 0.00 | 0.00 | 37 | 1007.4 |
| 20260504141205 | 63 | 202 | 1.0 | 7.0 | 0.00 | 0.00 | 0.00 | 47 | 1008.4 |
| 20260504140205 | 62 | 253 | 3.0 | 7.0 | 0.00 | 0.00 | 0.00 | 48 | 1008.7 |
| 20260504130205 | 57 | 233 | 2.0 | 5.0 | 0.00 | 0.00 | 0.00 | 54 | 1009.3 |
| 20260504120205 | 50 | 258 | 2.0 | 6.0 | 0.00 | 0.01 | 0.00 | 66 | 1009.9 |
| 20260504110705 | 43 | 211 | 0.0 | 1.0 | 0.00 | 0.01 | 0.00 | 82 | 1009.9 |
| 20260504100205 | 43 | 257 | 0.0 | 0.0 | 0.00 | 0.01 | 0.00 | 81 | 1010.0 |
| 20260504081705 | 41 | 257 | 0.0 | 0.0 | 0.00 | 0.01 | 0.00 | 87 | 1009.9 |
| 20260504080205 | 41 | 257 | 0.0 | 0.0 | 0.00 | 0.01 | 0.00 | 88 | 1009.9 |
| 20260504070206 | 38 | 257 | 0.0 | 0.0 | 0.00 | 0.01 | 0.00 | 89 | 1009.8 |